| time (UTC) | temp F | wind direction | speed MPH | gust MPH | rain 1hr in | rain 24hr in | rain mn in | humidity % | barometer mb |
| 20260504050007 | 68 | 225 | 1.0 | 3.0 | 0.00 | 0.00 | 0.00 | 39 | |
| 20260504044510 | 68 | 174 | 0.0 | 4.0 | 0.00 | 0.00 | 0.00 | 39 | |
| 20260504043012 | 69 | 216 | 0.0 | 3.0 | 0.00 | 0.00 | 0.00 | 38 | |
| 20260504041514 | 69 | 215 | 0.0 | 2.0 | 0.00 | 0.00 | 0.00 | 38 | |
| 20260504040018 | 69 | 199 | 0.0 | 3.0 | 0.00 | 0.00 | 0.00 | 38 | |
| 20260504034531 | 70 | 194 | 1.0 | 3.0 | 0.00 | 0.00 | 0.00 | 37 | |
| 20260504033033 | 70 | 193 | 1.0 | 3.0 | 0.00 | 0.00 | 0.00 | 36 | |
| 20260504031530 | 71 | 212 | 1.0 | 4.0 | 0.00 | 0.00 | 0.00 | 35 | |
| 20260504030023 | 71 | 236 | 0.0 | 3.0 | 0.00 | 0.00 | 0.00 | 34 | |
| 20260504024540 | 72 | 191 | 1.0 | 3.0 | 0.00 | 0.00 | 0.00 | 33 | |
| 20260504023023 | 72 | 222 | 1.0 | 4.0 | 0.00 | 0.00 | 0.00 | 32 | |
| 20260504021524 | 73 | 183 | 2.0 | 4.0 | 0.00 | 0.00 | 0.00 | 30 | |
| 20260504020021 | 73 | 227 | 1.0 | 7.0 | 0.00 | 0.00 | 0.00 | 29 | |
| 20260504014515 | 74 | 188 | 2.0 | 5.0 | 0.00 | 0.00 | 0.00 | 28 | |
| 20260504013018 | 75 | 173 | 2.0 | 4.0 | 0.00 | 0.00 | 0.00 | 27 | |
| 20260504011514 | 75 | 180 | 1.0 | 5.0 | 0.00 | 0.00 | 0.00 | 26 | |
| 20260504010015 | 76 | 178 | 1.0 | 5.0 | 0.00 | 0.00 | 0.00 | 26 | |
| 20260504004533 | 77 | 167 | 1.0 | 4.0 | 0.00 | 0.00 | 0.00 | 24 | |
| 20260504003019 | 78 | 242 | 1.0 | 7.0 | 0.00 | 0.00 | 0.00 | 24 | |
| 20260504001522 | 79 | 211 | 1.0 | 5.0 | 0.00 | 0.00 | 0.00 | 22 | |
| 20260504000022 | 80 | 229 | 2.0 | 4.0 | 0.00 | 0.00 | 0.00 | 22 | |
| 20260503234528 | 80 | 281 | 1.0 | 6.0 | 0.00 | 0.00 | 0.00 | 22 | |
| 20260503233030 | 81 | 241 | 3.0 | 5.0 | 0.00 | 0.00 | 0.00 | 20 | |
| 20260503231529 | 81 | 173 | 3.0 | 5.0 | 0.00 | 0.00 | 0.00 | 20 | |
| 20260503230028 | 82 | 215 | 2.0 | 6.0 | 0.00 | 0.00 | 0.00 | 20 | |
| 20260503224536 | 82 | 173 | 2.0 | 7.0 | 0.00 | 0.00 | 0.00 | 20 | |
| 20260503223037 | 82 | 198 | 2.0 | 7.0 | 0.00 | 0.00 | 0.00 | 20 | |
| 20260503221540 | 83 | 221 | 4.0 | 11.0 | 0.00 | 0.00 | 0.00 | 18 | |
| 20260503220040 | 83 | 169 | 1.0 | 7.0 | 0.00 | 0.00 | 0.00 | 19 | |
| 20260503214547 | 84 | 280 | 1.0 | 7.0 | 0.00 | 0.00 | 0.00 | 19 | |
| 20260503213053 | 84 | 223 | 1.0 | 8.0 | 0.00 | 0.00 | 0.00 | 19 | |
| 20260503211602 | 84 | 264 | 4.0 | 7.0 | 0.00 | 0.00 | 0.00 | 16 | |
| 20260503210058 | 84 | 270 | 2.0 | 6.0 | 0.00 | 0.00 | 0.00 | 19 | 1039.1 |
| 20260503204601 | 84 | 245 | 2.0 | 6.0 | 0.00 | 0.00 | 0.00 | 19 | 1039.1 |
| 20260503203106 | 84 | 260 | 2.0 | 6.0 | 0.00 | 0.00 | 0.00 | 19 | 1039.1 |
| 20260503201502 | 84 | 318 | 2.0 | 7.0 | 0.00 | 0.00 | 0.00 | 18 | 1039.1 |
| 20260503200001 | 84 | 239 | 2.0 | 9.0 | 0.00 | 0.00 | 0.00 | 20 | 1039.1 |
| 20260503194502 | 84 | 261 | 2.0 | 9.0 | 0.00 | 0.00 | 0.00 | 19 | 1039.1 |
| 20260503193005 | 83 | 302 | 1.0 | 5.0 | 0.00 | 0.00 | 0.00 | 19 | 1039.1 |
| 20260503191505 | 83 | 297 | 4.0 | 9.0 | 0.00 | 0.00 | 0.00 | 20 | 1039.1 |
| 20260503190020 | 83 | 275 | 3.0 | 8.0 | 0.00 | 0.00 | 0.00 | 20 | 1039.1 |
| 20260503184516 | 82 | 245 | 2.0 | 6.0 | 0.00 | 0.00 | 0.00 | 22 | 1039.1 |
| 20260503183013 | 81 | 268 | 2.0 | 7.0 | 0.00 | 0.00 | 0.00 | 25 | 1039.1 |
| 20260503181514 | 81 | 270 | 2.0 | 7.0 | 0.00 | 0.00 | 0.00 | 26 | 1039.1 |
| 20260503180014 | 80 | 237 | 4.0 | 8.0 | 0.00 | 0.00 | 0.00 | 26 | 1039.1 |
| 20260503174514 | 79 | 220 | 2.0 | 8.0 | 0.00 | 0.00 | 0.00 | 29 | 1039.1 |
| 20260503173019 | 78 | 280 | 2.0 | 7.0 | 0.00 | 0.00 | 0.00 | 31 | 1039.1 |
| 20260503171512 | 76 | 266 | 2.0 | 10.0 | 0.00 | 0.00 | 0.00 | 32 | 1039.1 |
| 20260503081536 | 54 | 320 | 0.0 | 0.0 | 0.00 | 0.00 | 0.00 | 61 | 1039.1 |
| 20260503071532 | 55 | 316 | 0.0 | 1.0 | 0.00 | 0.00 | 0.00 | 60 | 1039.1 |